Printer-friendly version

IAU Minor Planet Center

Minor Planet Center

MPEC 2006-W89 : 2006 WZ29

The following Minor Planet Electronic Circular may be linked-to from your own Web pages, but must not otherwise be redistributed electronically.


Read MPEC 2006-W88 Read MPEC 2006-W90


M.P.E.C. 2006-W89                                Issued 2006 Nov. 26, 02:58 UT

     The Minor Planet Electronic Circulars contain information on unusual
         minor planets and routine data on comets.  They are published
   on behalf of Commission 20 of the International Astronomical Union by the
          Minor Planet Center, Smithsonian Astrophysical Observatory,
                          Cambridge, MA 02138, U.S.A.

             Prepared using the Tamkin Foundation Computer Network

                              MPC@CFA.HARVARD.EDU
          URL http://cfa-www.harvard.edu/iau/mpc.html  ISSN 1523-6714

                                   2006 WZ29

Observations:
     K06W29Z* C2006 11 23.38837 04 03 11.52 +10 16 11.9          20.8 V EW089G96
     K06W29Z  C2006 11 23.39429 04 03 12.49 +10 16 09.3          21.2 V EW089G96
     K06W29Z  C2006 11 23.40022 04 03 13.46 +10 16 06.8          21.4 V EW089G96
     K06W29Z  C2006 11 23.40616 04 03 14.36 +10 16 05.1          21.5 V EW089G96
     K06W29Z  C2006 11 23.43872 04 03 19.58 +10 15 51.9          20.8 V EW089G96
     K06W29Z  C2006 11 23.44216 04 03 20.19 +10 15 50.6          20.7 V EW089G96
     K06W29Z  C2006 11 23.44564 04 03 20.73 +10 15 48.7          20.8 V EW089G96
     K06W29Z  C2006 11 23.44911 04 03 21.33 +10 15 47.5          20.9 V EW089G96
     K06W29Z  C2006 11 24.35335 04 05 57.56 +10 10 54.6                 EW089291
     K06W29Z  C2006 11 24.35760 04 05 58.15 +10 10 53.9                 EW089291
     K06W29Z  C2006 11 24.35831 04 05 58.23 +10 10 52.0          22.1 V EW089G96
     K06W29Z  C2006 11 24.36144 04 05 58.71 +10 10 52.1                 EW089291
     K06W29Z  C2006 11 24.36443 04 05 59.10 +10 10 49.3          21.1 V EW089G96
     K06W29Z  C2006 11 24.37059 04 05 59.96 +10 10 47.8          21.5 V EW089G96
     K06W29Z  C2006 11 24.37677 04 06 00.82 +10 10 46.1          22.1 V EW089G96
     K06W29Z  C2006 11 25.27819 04 08 23.31 +10 06 33.9          22.1 V EW089G96
     K06W29Z  C2006 11 25.29103 04 08 24.92 +10 06 31.1          20.9 V EW089G96

Observer details:
291 LPL/Spacewatch II.  Observer M. T. Read.  1.8-m f/2.7 reflector + CCD.
G96 Mt. Lemmon Survey.  Observer E. C. Beshore.  Measurers E. C. Beshore,
    E. J. Christensen, G. J. Garradd, A. R. Gibbs, A. D. Grauer, R. E. Hill,
    R. A. Kowalski, S. M. Larson, R. H. McNaught.  1.5-m reflector + CCD.

Orbital elements:
2006 WZ29                                                Earth MOID = 0.0186 AU
Epoch 2006 Sept. 22.0 TT = JDT 2454000.5                MPC
M 354.28089              (2000.0)            P               Q
n   0.28907017     Peri.  143.83644     +0.98100390     -0.18390259
a   2.2653424      Node   226.88381     +0.15213901     +0.92681495
e   0.5725706      Incl.    4.85140     +0.12035394     +0.32740476
P   3.41           H   24.8           G   0.15           U   9
Residuals in seconds of arc
061123 G96  0.3-  0.1+    061123 G96  0.2-  0.4-    061124 G96  0.3+  1.1-
061123 G96  0.2+  0.2-    061123 G96  0.3+  0.1-    061124 G96  0.1+  0.6-
061123 G96  0.5+  0.4-    061124 291  0.1-  0.0     061124 G96  0.1-  0.3-
061123 G96  0.2-  0.3+    061124 291  0.2-  0.7+    061125 G96  0.1+  0.5-
061123 G96  0.5-  0.1+    061124 G96  0.2+  0.4-    061125 G96  0.1-  0.0
061123 G96  0.2+  0.1+    061124 291  0.1+  0.1+

Ephemeris:
2006 WZ29                a,e,i = 2.27, 0.57, 5                   q = 0.9683
Date    TT    R. A. (2000) Decl.     Delta      r     Elong.  Phase     V
2006 11 21    03 55.07   +10 33.8    0.113    1.100   170.4     8.6    20.9
2006 11 22    03 58.75   +10 25.9    0.119    1.106   170.1     8.8    21.0
2006 11 23    04 02.04   +10 19.0    0.126    1.112   169.8     9.0    21.1
2006 11 24    04 05.00   +10 13.2    0.132    1.118   169.6     9.2    21.3
2006 11 25    04 07.68   +10 08.2    0.139    1.124   169.4     9.3    21.4
2006 11 26    04 10.11   +10 04.1    0.146    1.130   169.2     9.4    21.5
2006 11 27    04 12.33   +10 00.6    0.152    1.137   169.0     9.6    21.6
2006 11 28    04 14.35   +09 57.9    0.159    1.143   168.7     9.7    21.7
2006 11 29    04 16.21   +09 55.8    0.166    1.150   168.5     9.8    21.8
2006 11 30    04 17.93   +09 54.3    0.173    1.156   168.3    10.0    22.0
2006 12 01    04 19.51   +09 53.4    0.180    1.163   168.0    10.1    22.1

Gareth V. Williams           (C) Copyright 2006 MPC           M.P.E.C. 2006-W89

Read MPEC 2006-W88 Read MPEC 2006-W90


Our Web policy. Index to the CBAT/MPC/ICQ pages.


Valid HTML 4.01!